This is the latest recevied weather packets stored in our database for station/object K9APR. If no packets are shown the sender has not sent any weather packets the latest 10 day(s).
| Time | Temp. | Humidity | Pressure | Rain* | Wind** | Luminosity | Snow |
|---|---|---|---|---|---|---|---|
| 1787526561 | 22.78° C | 67% | 1014.5 hPa | 0 mm | - | - | - |
| 1787526022 | 23.33° C | 66% | 1014.4 hPa | 0 mm | - | - | - |
| 1787525482 | 23.33° C | 66% | 1014.4 hPa | 0 mm | - | - | - |
| 1787524942 | 23.89° C | 65% | 1014.4 hPa | 0 mm | - | - | - |
| 1787524401 | 23.89° C | 64% | 1014.4 hPa | 0 mm | - | - | - |
| 1787523862 | 23.89° C | 64% | 1014.4 hPa | 0 mm | - | - | - |
| 1787523322 | 24.44° C | 62% | 1014.4 hPa | 0 mm | - | - | - |
| 1787522782 | 24.44° C | 62% | 1014.4 hPa | 0 mm | - | - | - |
| 1787522241 | 24.44° C | 65% | 1014.6 hPa | 0 mm | - | - | - |
| 1787521701 | 24.44° C | 64% | 1014.6 hPa | 0 mm | - | - | - |
| 1787521162 | 24.44° C | 65% | 1014.6 hPa | 0 mm | - | - | - |
| 1787520621 | 24.44° C | 63% | 1014.7 hPa | 0 mm | - | - | - |
| 1787520083 | 25° C | 63% | 1014.7 hPa | 0 mm | - | - | - |
| 1787519541 | 25° C | 65% | 1014.5 hPa | 0 mm | - | - | - |
| 1787519001 | 25° C | 67% | 1014.7 hPa | 0 mm | - | - | - |
| 1787518464 | 24.44° C | 65% | 1014.8 hPa | 0 mm | - | - | - |
| 1787517922 | 24.44° C | 66% | 1014.8 hPa | 0 mm | - | - | - |
| 1787517381 | 23.89° C | 67% | 1014.9 hPa | 0 mm | - | - | - |
| 1787516843 | 23.33° C | 68% | 1015 hPa | 0 mm | - | - | - |
| 1787516302 | 23.89° C | 68% | 1015 hPa | 0 mm | - | - | - |
| 1787515761 | 23.89° C | 65% | 1015.1 hPa | 0 mm | - | - | - |
| 1787515221 | 24.44° C | 63% | 1015.1 hPa | 0 mm | - | - | - |
| 1787514683 | 25° C | 64% | 1015 hPa | 0 mm | - | - | - |
| 1787514142 | 25° C | 63% | 1015.2 hPa | 0 mm | - | - | - |
| 1787513601 | 25° C | 65% | 1015.1 hPa | 0 mm | - | - | - |
* Rain latest hour (hover to see other rain measurements)
** Current wind speed in m/s (hover to see current wind gust speed)